Regional Weather Roundup
Issued by NWS

Home | Current Version | Previous Version | Graphics & Text | Print | Product List | Glossary On
Versions: 1 2 3 4 5 6 7 8 9 10 11 12 13 14 15 16 17 18 19 20 21 22 23 24 25 26 27 28 29 30 31 32 33 34 35 36 37 38 39 40 41 42 43 44 45 46 47 48 49 50
846
ASUS43 KMKX 180710
RWRWI

WISCONSIN REGIONAL WEATHER ROUNDUP
NATIONAL WEATHER SERVICE MILWAUKEE/SULLIVAN WI
100 AM CST SUN FEB 18 2018

NOTE: "FAIR" INDICATES FEW OR NO CLOUDS BELOW 12,000 FEET WITH NO
SIGNIFICANT WEATHER AND/OR OBSTRUCTIONS TO VISIBILITY.

WIZ001-002-006>008-014>016-023>028-180800-
NORTHWEST WISCONSIN

CITY           SKY/WX    TMP DP  RH WIND       PRES   REMARKS
SUPERIOR ARPT  FAIR      10   3  73 S5        30.06R WCI   2
ASHLAND        FAIR      11   3  70 SW7       30.06R WCI   0
HAYWARD        FAIR      10   3  73 CALM      30.03R
SIREN          FAIR      12   3  67 CALM      30.06R
CUMBERLAND     FAIR      12   1  62 W5        30.04S WCI   4
RICE LAKE      FAIR       9   4  79 CALM      30.07S
CHETEK         FAIR      13   6  73 SW3       30.07R
LADYSMITH      FAIR      17   6  63 W5        30.06R WCI  10
EAU CLAIRE     FAIR      12   5  73 CALM      30.07S
MENOMONIE      FAIR      19   7  59 CALM      30.08S
NEW RICHMOND   FAIR       9   2  71 CALM      30.07S
OSCEOLA        FAIR       9   4  77 CALM      30.10S
$$

WIZ003>005-009-010-017-018-180800-
NORTH CENTRAL WISCONSIN

CITY           SKY/WX    TMP DP  RH WIND       PRES   REMARKS
MANITOWISH WTR FAIR       9   2  73 NW7       29.98R WCI  -2
ARBOR VITAE    FAIR      19  11  69 CALM      29.98R
WOODRUFF       FAIR      19  11  69 CALM      29.98R
RHINELANDER    FAIR      13   7  77 W8        29.98R WCI   2
EAGLE RIVER    FAIR      16   7  68 NW6       29.97R WCI   7
LAND O LAKES   FAIR      15   7  69 W3        29.98R
PHILLIPS       FAIR      16   7  67 W3        30.01R
TOMAHAWK       FAIR      12   7  80 W5        30.02R WCI   5
MEDFORD        FAIR      15   7  71 CALM      30.02R
MERRILL        FAIR      15  11  85 W5        30.04R WCI   7
$$

WIZ029-030-035-036-043>047-180800-
CENTRAL WISCONSIN

CITY           SKY/WX    TMP DP  RH WIND       PRES   REMARKS
WAUSAU         FAIR      18  11  74 NW7       30.02R WCI   9
MOSINEE        FAIR      18  16  93 W7        30.05R WCI   8
MARSHFIELD     FAIR      15  13  91 W7        30.04R WCI   5
STEVENS POINT  FAIR      20  13  75 W6        30.07R WCI  12
WAUPACA        FAIR      23  18  81 W3        30.08R
WAUTOMA        FAIR      23  18  81 W7        30.09R WCI  15
WISC RAPIDS    FAIR      20  15  81 W7        30.09R WCI  11
CAMP DOUGLAS   FAIR      16  14  91 W6        30.09R WCI   8
$$

WIZ011>013-019>022-031-037>040-048>050-180800-
NORTHEAST WISCONSIN

CITY           SKY/WX    TMP DP  RH WIND       PRES   REMARKS
ANTIGO         FAIR      16  13  87 W8        30.01R WCI   5
SHAWANO        FAIR      24  19  82 SW5       30.04R WCI  18
OCONTO         FAIR      20  18  90 SW5       30.04R WCI  14
STURGEON BAY   FAIR      23  20  88 W10       30.04R WCI  12
GREEN BAY      FAIR      22  18  85 SW7       30.06R WCI  13
MANITOWOC      FAIR      24  21  88 W10       30.08R WCI  14
APPLETON       FAIR      23  18  80 W9        30.05R WCI  13
CLINTONVILLE   FAIR      19  16  91 SW7       30.06R WCI   9
OSHKOSH        FAIR      24  19  81 VRB5      30.08R WCI  18
$$

WIZ032>034-041-042-053>061-180800-
SOUTHWEST WISCONSIN

CITY           SKY/WX    TMP DP  RH WIND       PRES   REMARKS
LA CROSSE      FAIR      18  15  88 CALM      30.11S
SPARTA         FAIR       9   8  92 CALM      30.11R
VIROQUA        FAIR      21  20  98 W7        30.08R WCI  12
BOSCOBEL       FAIR      20  18  92 SW5       30.14R FOG     WCI  13
PRAIRIE DU CHI FAIR      21  18  90 CALM      30.15R
PLATTEVILLE    FAIR      19  19 100 SW5       30.14S WCI  12
$$

WIZ056-057-062-063-064-067-068-180800-
SOUTH CENTRAL WISCONSIN

CITY           SKY/WX    TMP DP  RH WIND       PRES   REMARKS
REEDSBURG      FAIR      24  20  87 W6        30.11R WCI  17
BARABOO/DELLS  FAIR      23  19  87 W3        30.10R
LONE ROCK      FAIR      23  22  96 W3        30.14R
MINERAL POINT  FAIR      23  23 100 SW7       30.12R WCI  15
MADISON        FAIR      17  15  92 CALM      30.13R
MIDDLETON      FAIR      25  23  91 W5        30.13R WCI  19
WATERTOWN      FAIR      15  15 100 CALM      30.11R FOG
MONROE         FAIR      23  23 100 SW13      30.13R WCI  11
JANESVILLE     FAIR      21  21 100 SW5       30.16R WCI  15
$$

WIZ051-052-058>065-066-070>072-180800-
SOUTHEAST WISCONSIN

CITY           SKY/WX    TMP DP  RH WIND       PRES   REMARKS
MILWAUKEE      FAIR      23  19  85 SW6       30.12R WCI  16
WAUKESHA       FAIR      25  21  86 SW7       30.11R WCI  17
MILWAUKEE/TIMM FAIR      25  19  80 SW6       30.11R WCI  18
RACINE         FAIR      24  20  84 SW6       30.15R WCI  17
BURLINGTON     FAIR      21  18  87 SW7       30.14R WCI  13
KENOSHA        FAIR      24  20  84 SW7       30.15R WCI  16
FOND DU LAC    FAIR      22  17  81 SW6       30.09R WCI  14
SHEBOYGAN      FAIR      25  21  85 W10       30.08R WCI  15
WEST BEND      FAIR      25  23  93 W9        30.08S WCI  15
JUNEAU         FAIR      19  17  95 SW3       30.11R
$$

LSZ147-162-180800-
LAKE SUPERIOR

STATION/POSITION TIME  TEMP    WIND        PRES    WAVE
                       AIR SEA DIR/SP/G            HT/PER
                 (UTC) (F)     (DEG/KT/KT) (MB)    (FT/S)
DEVILS ISLAND    0700   21     270/ 20/ 23 1018.3R
SAXON HARBOR     0640   20     230/  3/  6 1017.6R
$$

LMZ867-665-643>646-180800-
LAKE MICHIGAN

STATION/POSITION TIME  TEMP    WIND        PRES    WAVE
                       AIR SEA DIR/SP/G            HT/PER
                 (UTC) (F)     (DEG/KT/KT) (MB)    (FT/S)
NORTHPORT PIER   0640   24                 1016.3R
KEWAUNEE LAKESHO 0648   26     260/  8/ 10 1017.0R
SHEBOYGAN LAKESH 0700   27     240/  7/  8 1020.0R
PORT WASHINGTON  0630   26     240/  4/  7 1020.3R
MILWAUKEE LAKESH 0650   28     240/  6/  7   N/A
KENOSHA   LAKESH 0700   26     230/  2/  8 1021.7
$$

TC  - TEMPERATURE IN CELSIUS
VSB - VISIBILITY IN STATUTE MILES
WCI - WIND CHILL INDEX
HX  - HEAT INDEX





USA.gov is the U.S. government's official web portal to all federal, state and local government web resources and services.